Location: Arrington
(35.8681°N, 86.7092°W)
Time: 03:40:54
(UTC+00:00)

Cosmos 2100 Rocket - Pass Details

Date: 23 November 2019
Orbit: 955 x 1001 km, 82.9° (Epoch: 05 December)

Event Time Altitude Azimuth Distance (km) Brightness Sun altitude
Rises 10:42:53 0° 209° (SSW) 3,643 6.8 -21.6°
Reaches altitude 10° 10:45:37 10° 219° (SW) 2,694 6.0 -21.1°
Enters shadow 10:45:49 11° 220° (SW) 2,631 6.0 -21.1°
Exits shadow 10:51:47 34° 295° (WNW) 1,538 4.5 -19.9°
Drops below altitude 10° 10:56:42 10° 347° (NNW) 2,692 6.1 -18.9°
Sets 10:59:27 0° 357° (N) 3,640 6.8 -18.4°
